Flag for United Kingdom Weather past 2 weeks in Swansea, Wales, United Kingdom

Now
47 °F

Cool.


Feels Like: 40 °F
Forecast: 44 / 51 °F
Wind: 20 mph from West

Location: Mumbles

Current Time: Mar 30, 2015 at 12:22:03 PM

Latest Report: Mar 30, 2015 at 11:00 AM


Visibility: N/A

Pressure: 29.93 "Hg

Humidity: 72%

Dew point: 38 °F

Location of SwanseaLocation

Historic Weather in Swansea — Graph

°F

Swansea temperature yesterday

Maximum temperature yesterday: 52 °F (at 3:00 PM)
Minimum temperature yesterday: 47 °F (at 5:00 AM)
Average temperature yesterday: 49 °F

Past Weeks' High & Low Weather Summary

 TemperatureHumidityPressure
High57 °F (Mar 20, 4:00 PM)100% (Mar 28, 4:00 AM)30.59 "Hg (Mar 28, 4:00 AM)
Low37 °F (Mar 25, 6:00 AM)45% (Mar 26, 3:00 PM)29.44 "Hg (Mar 29, 11:00 AM)
Average45 °F80%30.13 "Hg
* Reported Mar 15 10:00 AM — Mar 30 11:00 AM, Swansea, Weather by CustomWeather, © 2015

Note: Actual official high and low records may vary slightly from our data, if they occured in-between our weather recording intervals... More about our weather records

Advertising

Swansea weather history for previous 24 hours

 ConditionsComfort  
Time TempWeatherWind HumidityBarometerVisibility
11:00 AM
Mon, Mar 30
47 °FCool.20 mph72%29.93 "HgN/A
10:00 AM46 °FCool.15 mph63%29.93 "HgN/A
9:00 AM46 °FCool.14 mph67%29.90 "HgN/A
7:00 AM44 °FQuite cool.13 mph76%29.86 "HgN/A
6:00 AM44 °FQuite cool.12 mph77%29.82 "HgN/A
5:00 AM45 °FQuite cool.14 mph78%29.80 "HgN/A
4:00 AM44 °FQuite cool.12 mph76%29.77 "HgN/A
2:00 AM44 °FQuite cool.13 mph76%29.73 "HgN/A
1:00 AM46 °FCool.12 mph74%29.70 "HgN/A
12:00 AM47 °FCool.16 mph79%29.68 "HgN/A
11:00 PM
Sun, Mar 29
48 °FCool.17 mph85%29.65 "HgN/A
9:00 PM48 °FCool.16 mph82%29.63 "HgN/A
8:00 PM49 °FCool.18 mph76%29.61 "HgN/A
7:00 PM49 °FCool.25 mph82%29.59 "HgN/A
6:00 PM49 °FCool.28 mph82%29.57 "HgN/A
5:00 PM50 °FCool.29 mph82%29.56 "HgN/A
4:00 PM51 °FCool.26 mph74%29.54 "HgN/A
3:00 PM52 °FCool.33 mph80%29.50 "HgN/A
2:00 PM51 °FCool.37 mph87%29.47 "HgN/A
1:00 PM51 °FCool.45 mph88%29.44 "HgN/A
12:00 PM51 °FCool.46 mph90%29.44 "HgN/A
Weather by CustomWeather, © 2015

See weather overviewHow to use our weather pages